Lod/Ben Gurion Airport, Israel

2:52 PM IST on February 27, 2017 (GMT +0200)
Ben Gurion

Weather History for LLBG - January, 2014

Change the Weather History Date:

Monday, January 6, 2014

  Actual Average Record
Temperature  
Mean Temperature 54 °F -  
Max Temperature 66 °F 61 °F 75 °F (1997)
Min Temperature 43 °F 47 °F 42 °F (2017)
Degree Days  
Heating Degree Days 10    
Growing Degree Days 4 (Base 50)    
Moisture  
Dew Point 43 °F    
Average Humidity 66    
Maximum Humidity 87    
Minimum Humidity 32    
Precipitation  
Precipitation 0.00 in - - ()
Sea Level Pressure  
Sea Level Pressure 30.16 in    
Wind  
Wind Speed 3 mph ()    
Max Wind Speed 12 mph    
Max Gust Speed -    
Visibility 6.0 miles    
Events      
Averages and records for this station are not official NWS values.
T = Trace of Precipitation, MM = Missing Value Source: Averaged Metar Reports

Daily Weather History Graph

Daily Weather History Graph

Search for Another Location

Airport or City:

Trip Planner

Search our weather history database for the weather conditions in past years. The results will help you decide how hot, cold, wet, or windy it might be!

Date:

Astronomy

Jan. 06, 2014 Rise Set
Actual Time 6:41 AM IST 4:50 PM IST
Civil Twilight 6:14 AM IST 5:17 PM IST
Nautical Twilight 5:44 AM IST 5:47 PM IST
Astronomical Twilight 5:14 AM IST 6:17 PM IST
Moon 10:06 AM IST (1/6) 10:38 PM IST (1/6)
Length of Visible Light 11h 02m
Length of Day
10h 09m
Waxing Crescent, 31% of the Moon is Illuminated
Jan 6
Waxing Crescent
Jan 8
First Quarter
Jan 16
Full
Jan 24
Last Quarter
Jan 30
New

Hourly Weather History & Observations

Time (IST) Temp. Windchill Dew Point Humidity Pressure Visibility Wind Dir Wind Speed Gust Speed Precip Events Conditions
12:20 AM 50.0 °F - 41.0 °F 71% 30.12 in - Variable 3.5 mph - N/A   Clear
12:50 AM 48.2 °F - 41.0 °F 76% 30.15 in - Variable 3.5 mph - N/A   Clear
1:20 AM 48.2 °F - 41.0 °F 76% 30.15 in - Variable 2.3 mph - N/A   Clear
1:50 AM 48.2 °F - 41.0 °F 76% 30.15 in - Variable 2.3 mph - N/A   Clear
2:00 AM 48 °F - 41 °F 68% 30.16 in 6 mi 2.3 mph - -  
2:20 AM 48.2 °F - 41.0 °F 76% 30.15 in - Variable 2.3 mph - N/A   Clear
2:50 AM 46.4 °F 45.2 °F 41.0 °F 81% 30.15 in - Variable 3.5 mph - N/A   Clear
3:20 AM 48.2 °F - 41.0 °F 76% 30.15 in - Variable 3.5 mph - N/A   Clear
3:50 AM 46.4 °F - 39.2 °F 76% 30.15 in - Variable 1.2 mph - N/A   Clear
4:20 AM 46.4 °F - 39.2 °F 76% 30.15 in - Variable 1.2 mph - N/A   Clear
4:50 AM 48.2 °F - 39.2 °F 71% 30.15 in - Variable 3.5 mph - N/A   Clear
5:00 AM 47 °F - 40 °F 67% 30.17 in 6 mi 3.5 mph - -  
5:20 AM 44.6 °F 43.1 °F 39.2 °F 81% 30.15 in - Variable 3.5 mph - N/A   Clear
5:50 AM 44.6 °F - 39.2 °F 81% 30.15 in - Variable 1.2 mph - N/A   Clear
6:20 AM 44.6 °F - 39.2 °F 81% 30.18 in - Calm Calm - N/A   Clear
6:50 AM 44.6 °F 43.1 °F 39.2 °F 81% 30.18 in - Variable 3.5 mph - N/A   Clear
7:20 AM 44.6 °F 42.2 °F 39.2 °F 81% 30.18 in - East 4.6 mph - N/A   Clear
7:50 AM 46.4 °F 45.2 °F 39.2 °F 76% 30.18 in - Variable 3.5 mph - N/A   Clear
8:00 AM 46 °F - 40 °F 72% 30.21 in 6 mi 3.5 mph - -  
8:20 AM 50.0 °F - 41.0 °F 71% 30.21 in - Variable 1.2 mph - N/A   Clear
8:50 AM 53.6 °F - 41.0 °F 62% 30.21 in - Variable 1.2 mph - N/A   Clear
9:20 AM 57.2 °F - 41.0 °F 55% 30.21 in - Variable 1.2 mph - N/A   Clear
9:50 AM 59.0 °F - 41.0 °F 51% 30.21 in - Variable 1.2 mph - N/A   Clear
10:20 AM 62.6 °F - 42.8 °F 48% 30.18 in - Calm Calm - N/A   Clear
10:50 AM 62.6 °F - 41.0 °F 45% 30.18 in - Variable 2.3 mph - N/A   Clear
11:00 AM 63 °F - 42 °F 34% 30.19 in 6 mi 2.3 mph - -  
11:20 AM 62.6 °F - 42.8 °F 48% 30.18 in - North 5.8 mph - N/A   Clear
11:50 AM 62.6 °F - 42.8 °F 48% 30.15 in - NNE 6.9 mph - N/A   Clear
12:20 PM 64.4 °F - 41.0 °F 42% 30.15 in - NNE 5.8 mph - N/A   Clear
12:50 PM 64.4 °F - 41.0 °F 42% 30.12 in - North 6.9 mph - N/A   Clear
1:20 PM 64.4 °F - 41.0 °F 42% 30.12 in - North 5.8 mph - N/A   Clear
1:50 PM 64.4 °F - 42.8 °F 45% 30.12 in - North 6.9 mph - N/A   Clear
2:00 PM 65 °F - 42 °F 32% 30.16 in 6 mi North 6.9 mph - -  
2:20 PM 66.2 °F - 42.8 °F 43% 30.12 in 6.2 mi North 5.8 mph - N/A   Partly Cloudy
2:50 PM 64.4 °F - 46.4 °F 52% 30.12 in 6.2 mi WNW 10.4 mph - N/A   Partly Cloudy
3:20 PM 64.4 °F - 46.4 °F 52% 30.12 in - NNW 11.5 mph - N/A   Clear
3:50 PM 62.6 °F - 46.4 °F 55% 30.15 in - NNW 11.5 mph - N/A   Clear
4:20 PM 60.8 °F - 46.4 °F 59% 30.12 in - North 10.4 mph - N/A   Clear
4:50 PM 60.8 °F - 46.4 °F 59% 30.15 in - North 9.2 mph - N/A   Clear
5:00 PM 60 °F - 47 °F 52% 30.15 in 6 mi North 8.1 mph - -   Clear
5:20 PM 59.0 °F - 46.4 °F 63% 30.15 in - North 6.9 mph - N/A   Clear
5:50 PM 59.0 °F - 46.4 °F 63% 30.15 in - NNW 4.6 mph - N/A   Clear
6:20 PM 57.2 °F - 46.4 °F 67% 30.18 in - North 5.8 mph - N/A   Clear
6:50 PM 57.2 °F - 46.4 °F 67% 30.18 in - NE 4.6 mph - N/A   Clear
7:20 PM 55.4 °F - 46.4 °F 72% 30.18 in - Variable 3.5 mph - N/A   Clear
7:50 PM 53.6 °F - 46.4 °F 77% 30.18 in - Variable 3.5 mph - N/A   Clear
8:00 PM 54 °F - 46 °F 68% 30.20 in 6 mi 3.5 mph - -  
8:20 PM 53.6 °F - 46.4 °F 77% 30.18 in - Variable 2.3 mph - N/A   Clear
8:50 PM 53.6 °F - 46.4 °F 77% 30.18 in - Variable 2.3 mph - N/A   Clear
9:20 PM 51.8 °F - 46.4 °F 82% 30.18 in - ENE 4.6 mph - N/A   Clear
9:50 PM 51.8 °F - 44.6 °F 76% 30.18 in - Variable 3.5 mph - N/A   Clear
10:20 PM 51.8 °F - 44.6 °F 76% 30.18 in - Variable 1.2 mph - N/A   Clear
10:50 PM 50.0 °F - 44.6 °F 82% 30.15 in - Variable 2.3 mph - N/A   Clear
11:00 PM 50 °F - 45 °F 76% 30.18 in 6 mi 2.3 mph - -  
11:20 PM 48.2 °F - 42.8 °F 82% 30.15 in - Variable 3.5 mph - N/A   Clear
11:50 PM 48.2 °F - 44.6 °F 87% 30.15 in - Variable 2.3 mph - N/A   Clear